Regional Weather Roundup
Issued by NWS Midland/Odessa, TX

Skip options and go directly to product.
Home | Oldest Version | Previous Version | Current Version | All | Text Only | Save Text | Print | Product List | Glossary Off

Skip product version selection by date and time.   

632
ASUS44 KMAF 161910
RWRMAF
MIDLAND AREA WEATHER ROUNDUP
NATIONAL WEATHER SERVICE MIDLAND TX
200 PM CDT TUE SEP 16 2014

...IN SOUTHWEST TEXAS AND SOUTHEAST NEW MEXICO...

CITY           SKY/WX    TMP DP  RH WIND       PRES   REMARKS
ALPINE         MOSUNNY   77  58  51 CALM      30.28S
ANDREWS        CLOUDY    76  64  66 S5        30.20S
ARTESIA        NOT AVBL
BIG SPRING     CLOUDY    82  64  55 NE3       30.17F
CARLSBAD       LGT RAIN  73  72  96 N3        30.19F
DRYDEN           N/A     89  64  43 E9        30.09F
FORT STOCKTON  PTSUNNY   79  63  57 SE12      30.16F
GUAD PASS      PTSUNNY   69  61  75 NE26      30.28F
HOBBS          PTSUNNY   68  68 100 W6        30.23F
MARFA          MOSUNNY   73  57  56 N3        30.26F
MIDLAND AIRPK  NOT AVBL
MIDLAND INTL   PTSUNNY   80  64  58 SE9       30.16F
ODESSA         CLOUDY    80  64  58 MISG      30.18F
PECOS          PTSUNNY   81  63  54 E9        30.14F
PRESIDIO       FAIR      85  61  44 SE10      30.11F
SEMINOLE       CLOUDY    75  64  68 S5        30.21F
SNYDER         CLOUDY    79  68  68 CALM      30.16F
WINK           CLOUDY    80  63  55 SE9       30.15F
$$
...OTHER STATIONS IN TEXAS...

CITY           SKY/WX    TMP DP  RH WIND       PRES   REMARKS
ABILENE        CLOUDY    86  65  49 VRB3      30.11F
AMARILLO       PTSUNNY   73  62  68 S9        30.20F
AUSTIN         PTSUNNY   91  70  49 E8        30.01F
BROWNSVILLE    MOSUNNY   89  76  65 S13       29.98F HX 100
CORPUS CHRISTI PTSUNNY   89  75  63 S13       29.97F
DALLAS FTW     PTSUNNY   89  68  49 VRB6      30.06F
DEL RIO        PTSUNNY   88  70  55 E5        30.04F
EL PASO        CLOUDY    74  65  73 N8        30.17F
HOUSTON INT    CLOUDY    84  75  74 SE8       30.00F
LUBBOCK        CLOUDY    77  64  64 S6        30.18F
SAN ANGELO     PTSUNNY   85  69  58 N12       30.11F
SAN ANTONIO    PTSUNNY   91  69  48 E7        30.02F
WACO           PTSUNNY   88  71  57 CALM      30.04F
WICHITA FALLS  NOT AVBL
$$
...OTHER LOCATIONS IN NEW MEXICO...

CITY           SKY/WX    TMP DP  RH WIND       PRES   REMARKS
ALAMAGORDO     CLOUDY    70  64  83 W6        30.22F
ALBUQUERQUE    CLOUDY    70  57  63 SW5       30.28F
CANNON AFB     PTSUNNY   75  60  59 S10       30.23F
CLOVIS           N/A     73  61  64 S5        30.26F
HOLLOMAN AFB   PTSUNNY   72  66  83 NW1       30.19F
ROSWELL        LGT RAIN  70  65  84 CALM      30.22F
RUIDOSO        NOT AVBL
SANTA FE       PTSUNNY   69  52  54 S7        30.32F
TRUTH OR CONSE LGT RAIN  68  63  84 NE6       30.24F
TUCUMCARI      CLOUDY    76  60  57 SW12      30.20F
$$

USA.gov is the U.S. government's official web portal to all federal, state and local government web resources and services.